Aeroporto :
LOGIN :

Iscrizione | Disclaimer

   EN    FR    IT 

 










Sommario :    VFR   VFR Marginale   IFR   IFR Intensivo   IFR Molto Intensivo
Visibilità : 
Base nubi : 
>= 8 km
>= 3000ft
5 / 8 km
1000 / 3000 ft
1500m / 5 km
500 / 1000 ft
800 / 1500m
200 / 500 ft
< 800m
< 200 ft
Simboli :   Temporali  Nebbia  Neve Forte  Precipitazioni Forti  Vento > 20 kt
SIGMETs :   Varie  Temporali  Ghiacco  Turbolenza  Onda orograficha  Ceneri Vulcaniche







- Altitudine del aeroporto : 26 ft
- Codice IATA : BIA
- Carte del aeroporto


LFKB - Bastia

ULTIMO METAR :
  • 220300Z AUTO 22006KT CAVOK 25/15 Q1014 NOSIG

METARs OBSOLETI :
  • 220230Z AUTO 23006KT CAVOK 25/15 Q1014 NOSIG
  • 220200Z AUTO 23007KT CAVOK 26/15 Q1014 NOSIG
  • 220130Z AUTO 24007KT CAVOK 26/15 Q1014 NOSIG
  • 220100Z AUTO 23008KT CAVOK 26/15 Q1014 NOSIG
  • 220030Z AUTO 23007KT CAVOK 26/15 Q1014 NOSIG

TAF TAF LFKB
Valido dal 22 a 03 ore il 23 a 03 ore UTC


220200Z 2203/2303 24006KT CAVOK TX31/2212Z TN23/2303Z
BECMG 2207/2210 04010KT
BECMG 2218/2221 24004KT
ATIS : +33 4 95 59 19 40
Nessun NOTAM noto per questo aeroporto.



MetMap, La meteo Aeronautica in un colpo d'occhio ! - Copyright ORBIFLY Dicembre 2007 - Disclaimer

ORBIFLY MET'MAP TEAM :

Programmazione e sviluppo : Alexandra Zaïnal
Concezione e sviluppo : Baudouin d'Aumeries
Co-Programmazione e sviluppo : Marc-Olivier Méhu
Supporto tecnico e logistico : Manuel Goepfert
Aiuto per la traduzione : Arnaldo La Scala

Contatto : metmap@orbifly.com




FONTI E CREDITI :

   NOAA